User: anonymous   Login
Location: Poughquag
(41.6090°N, 73.6820°W)
Time: 10:57:44
(UTC-04:00)
Language:

STARLINK-1326 - Orbit

View from above orbital plane
View from above orbital plane
View from above satellite
View from above satellite

Ground track
Ground track

The orbit data is extracted from the following two-line orbital elements,

1 45575U 20025AW  20221.50001157 -.00801646  00000-0 -20070-1 0  9998
2 45575  52.9992 232.8091 0001262  73.2531 208.5591 15.42209664 17547
Epoch (UTC): 08 August 2020 12:00:01
Eccentricity: 0.0001262
inclination: 52.9992°
perigee height: 439 km
apogee height: 440 km
right ascension of ascending node: 232.8091°
argument of perigee: 73.2531°
revolutions per day: 15.42209664
mean anomaly at epoch: 208.5591°
orbit number at epoch: 1754

The dashed part of the orbit path shows where the satellite is in the earth's shadow,  

DLR